This demonstration page uses our WeatherBlox Daily Observations layout. Learn more.

Left ArrowRight Arrow

38.89511, -77.03637

Hourly Observations for January 18, 2019

Temp ( °F °C ) Dew Point ( °F °C ) Humidity (%) Winds ( mph kmh ) Pressure ( in mb ) Visibility ( mi km ) Precip ( " mm )
12:21 am 00:21 Cloudy with Light Snow 34 1.1 31 -0.6 89 89 ENE 5 7 30.15 1021 3 4 0.01 0.25
12:26 am 00:26 Cloudy with Light Snow 34 1.1 31 -0.6 89 89 ENE 5 7 30.15 1021 3 5 0.01 0.25
12:49 am 00:49 Cloudy with Light Snow 34 1 32 0 93 93 ENE 3 6 30.15 1021 3 5 0.01 0.25
12:52 am 00:52 Cloudy with Light Snow 34 1.1 32 0 92 92 ENE 3 6 30.15 1021 3 5 0.01 0.25
12:59 am 00:59 Cloudy with Light Snow 34 1.1 32 0 92 92 Calm 30.15 1021 3 5 0.00 0.03
1:08 am 01:08 Cloudy with Light Snow 34 1.1 32 0 92 92 Calm 30.15 1021 4 6 0.00 0.03
1:31 am 01:31 Cloudy with Light Snow 35 1.7 32 0 89 89 ENE 3 6 30.15 1021 4 6 0.01 0.25
1:52 am 01:52 Cloudy with Light Snow 34 1.1 32 0 92 92 NE 3 6 30.13 1020 4 6 0.01 0.25
2:52 am 02:52 Cloudy with Light Snow 34 1.1 31 -0.6 89 89 NE 7 11 30.11 1020 6 10 0.01 0.25
3:23 am 03:23 Cloudy with Light Snow 34 1.1 31 -0.6 89 89 NE 7 11 30.12 1020 3 4 0.00 0.03
3:39 am 03:39 Cloudy with Light Snow 34 1.1 31 -0.6 89 89 NE 6 9 30.12 1020 4 6 0.00 0.03
3:52 am 03:52 Cloudy with Light Snow 34 1.1 31 -0.6 89 89 NE 6 9 30.10 1019 5 8 0.00 0.03
4:52 am 04:52 Cloudy with Mist and Fog 34 1.1 31 -0.6 89 89 NE 6 9 30.08 1019 4 6 0.00 0.03
5:52 am 05:52 Cloudy with Mist and Fog 34 1.1 31 -0.6 89 89 NNE 5 7 30.08 1019 5 8 0.00 0.00
6:52 am 06:52 Cloudy with Mist and Fog 34 1.1 31 -0.6 89 89 NE 6 9 30.08 1019 6 10 0.00 0.00
7:52 am 07:52 Cloudy with Mist and Fog 35 1.7 31 -0.6 85 85 NE 6 9 30.09 1019 3 5 0.00 0.00
8:12 am 08:12 Cloudy with Mist and Fog 35 1.7 32 0 89 89 NE 3 6 30.09 1019 3 4 0.00 0.00
8:52 am 08:52 Cloudy with Mist and Fog 35 1.7 32 0 89 89 ENE 3 6 30.11 1020 3 4 0.00 0.00
9:52 am 09:52 Cloudy with Haze 37 2.8 32 0 82 82 WSW 6 9 30.13 1020 3 4 0.00 0.00
9:59 am 09:59 Cloudy with Haze 37 2.8 32 0 82 82 NW 5 7 30.12 1020 3 5 0.00 0.00
10:52 am 10:52 Cloudy with Haze 38 3.3 33 0.6 83 83 WNW 5 7 30.14 1021 4 6 0.00 0.00
11:52 am 11:52 Cloudy with Mist and Fog 37 2.8 33 0.6 86 86 NE 5 7 30.12 1020 4 6 0.00 0.00
12:52 pm 12:52 Cloudy with Haze 38 3.3 33 0.6 83 83 Calm 30.10 1019 4 6 0.00 0.00
1:52 pm 13:52 Cloudy with Mist and Fog 38 3.3 34 1.1 86 86 S 5 7 30.09 1019 4 6 0.00 0.00
2:52 pm 14:52 Mostly Cloudy with Mist and Fog 38 3.3 34 1.1 86 86 S 8 13 30.09 1019 6 10 0.00 0.00
3:16 pm 15:16 Partly Cloudy 38 3.3 34 1.1 86 86 S 8 13 30.12 1020 7 11 0.00 0.00
3:52 pm 15:52 Partly Cloudy 39 3.9 34 1.1 82 82 S 7 11 30.11 1020 8 13 0.00 0.00
4:52 pm 16:52 Mostly Cloudy 39 3.9 34 1.1 82 82 S 8 13 30.11 1020 8 13 0.00 0.00
5:52 pm 17:52 Mostly Cloudy 39 3.9 34 1.1 82 82 S 3 6 30.13 1020 9 14 0.00 0.00
6:52 pm 18:52 Partly Cloudy 39 3.9 34 1.1 82 82 WSW 3 6 30.16 1021 9 14 0.00 0.00
7:52 pm 19:52 Cloudy 38 3.3 34 1.1 86 86 ESE 3 6 30.18 1022 7 11 0.00 0.00
8:52 pm 20:52 Cloudy 39 3.9 35 1.7 86 86 Calm 30.20 1023 7 11 0.00 0.00
9:52 pm 21:52 Cloudy 39 3.9 34 1.1 82 82 S 3 6 30.20 1023 7 11 0.00 0.00
10:52 pm 22:52 Cloudy with Mist and Fog 38 3.3 34 1.1 86 86 SE 3 6 30.21 1023 6 10 0.00 0.00
11:52 pm 23:52 Cloudy 38 3.3 35 1.7 89 89 S 3 6 30.21 1023 7 11 0.00 0.00

Powered by AerisWeather